PulseSat

PulseSat

COSMOS 2514 (751)

Last updated on March 21, 2019, 3:13 a.m. UTC

1 41330U 16008A   19078.50951417 -.00000037  00000-0  00000-0 0  9994
2 41330  65.3391  42.8823 0010217 231.2248  17.5240  2.13103189 24216
UTC
Height (km)
Latitude
Longitude
Inclination
Orbital Period

Next 30 passes for location: Hong Kong

Rise time Rise Azimuth (degrees) Set time Set Azimuth (degrees) Duration Max altitude (degrees)

No matching passes for this satellites

PulseSat

PulseSat is the new satellites software and hardware trackering solution by Pulsely.
Satellite Two Line Element Set source: US Air Force Space Command

Download PulseSat for iOS
© 2017 Pulsely Limited